SCP
1 1 1 1 1 1 1 1 1 1 1 2 2 2 1 1 1 1 1 1 1 1 1 1 1 0 0 1 1 1 1 1 1 1 1 0 0 0 0 0 0 0 0
1 1 2 2 1 1 1 1 1 1 1 2 2 2 2 2 1 1 1 1 1 1 1 1 1 0 1 1 1 1 1 1 1 1 0 0 0 1 1 0 0 0 0
1 1 2 2 2 2 1 1 1 1 1 2 2 2 2 2 2 1 1 1 1 1 1 1 1 1 1 1 1 1 1 1 1 1 0 0 1 1 1 1 0 0 0
1 1 2 2 2 2 2 2 1 1 1 1 2 2 2 2 2 1 1 1 1 1 1 1 1 1 1 1 1 1 1 1 1 0 0 0 0 1 1 1 0 0 0
1 1 1 2 2 2 2 2 2 2 2 2 2 2 2 1 1 1 1 1 1 1 1 1 1 1 1 1 1 1 1 1 1 0 0 0 0 0 0 0 0 0 0
1 1 1 1 2 2 2 2 2 2 2 2 2 2 2 1 1 1 1 1 1 1 1 1 1 1 1 1 1 1 1 1 1 0 0 0 0 0 0 0 0 0 0
1 1 1 1 1 1 2 2 2 2 2 2 2 2 2 1 1 1 1 1 1 1 1 1 1 1 1 1 1 1 1 1 1 0 0 0 0 0 0 0 0 0 0
1 1 1 1 1 1 1 1 2 2 2 2 2 2 1 1 1 1 1 1 1 1 1 1 1 1 1 1 1 1 1 1 1 0 0 1 0 0 0 0 0 0 0
1 1 1 1 1 1 1 1 1 2 2 2 2 2 1 1 1 1 1 1 1 1 1 1 1 1 1 1 1 1 1 1 0 0 0 1 1 0 0 0 0 0 0
1 1 1 1 1 1 1 1 1 2 2 2 1 1 1 1 1 1 1 1 1 1 1 1 1 1 1 1 1 1 1 1 1 1 1 1 1 1 0 0 0 0 1
1 1 1 1 1 1 1 1 1 1 1 1 1 1 1 1 1 1 1 1 1 1 1 1 1 1 1 1 1 1 1 1 1 1 1 1 1 1 1 0 0 0 1
1 1 1 1 1 1 1 1 1 1 1 1 1 1 1 1 1 1 1 1 1 1 1 1 1 1 1 1 1 1 1 1 1 0 1 1 1 1 1 1 1 1 1
2 2 1 1 1 1 1 1 1 1 1 1 1 1 1 1 1 1 1 1 1 1 1 1 1 1 1 1 1 1 1 1 1 0 0 0 0 1 1 1 1 1 1
2 2 2 2 1 1 1 1 1 1 1 1 1 1 1 1 1 1 1 1 1 1 1 1 1 1 1 1 1 1 1 1 1 0 0 0 0 0 0 1 1 1 1
2 2 2 2 1 1 1 1 1 1 1 1 1 1 1 1 1 1 1 1 1 1 1 1 1 1 1 1 1 1 1 1 1 0 0 0 0 0 0 0 0 1 1
2 2 2 1 1 1 1 1 1 1 1 1 1 1 1 1 1 1 1 1 1 1 1 1 1 1 1 1 1 1 1 1 1 1 0 0 0 0 0 0 0 0 1
1 1 1 1 1 1 1 1 1 1 1 1 1 1 1 1 1 1 0 0 0 0 1 1 1 1 1 1 1 1 1 2 2 1 0 0 0 0 0 0 0 0 1
1 1 1 1 1 1 1 1 1 1 1 1 1 1 1 1 1 0 0 0 0 0 0 0 0 0 0 1 1 1 1 2 2 1 1 0 0 0 0 0 0 0 0
0 1 1 1 1 1 1 2 2 1 1 1 1 1 1 1 1 0 0 0 0 0 0 0 0 0 0 0 0 1 1 2 2 1 1 0 0 0 0 0 0 0 0
0 0 0 0 0 0 1 1 2 1 1 1 1 1 1 1 1 0 0 0 0 0 0 0 0 0 0 0 0 1 1 1 2 2 1 0 0 0 0 0 0 0 0
0 0 0 0 0 0 1 1 1 1 1 1 2 2 2 1 1 0 0 0 0 0 0 0 0 0 0 0 0 0 1 1 1 1 1 0 0 0 0 0 0 0 0
0 0 0 0 0 0 0 1 1 1 1 1 2 2 2 2 1 1 0 0 0 0 0 0 0 0 0 0 0 0 0 1 1 1 1 0 0 0 0 0 0 0 0
0 0 0 0 0 0 0 1 1 1 1 1 2 2 2 2 1 1 0 0 0 0 0 0 0 0 0 0 0 0 0 1 1 1 0 0 0 0 0 0 0 0 0
0 0 0 0 0 0 0 1 1 1 1 1 1 2 2 2 1 1 0 0 0 0 0 0 0 0 0 0 0 0 0 0 1 0 0 0 0 0 0 0 0 0 0
0 0 0 1 0 0 1 1 1 1 1 1 1 1 1 1 1 1 1 0 0 0 0 0 0 0 0 0 0 0 0 0 0 0 0 0 0 0 0 0 0 0 0
0 0 1 1 0 0 1 1 0 0 1 1 1 1 1 1 1 1 1 0 0 0 0 0 0 0 0 0 0 0 0 0 0 1 1 0 0 0 0 0 0 0 0
Wind_Speed
5 7 7 7 8 8 9 9 9 9 9 9 9 9 9 8 8 8 7 7 7 7 7 7 7 7 7 7 7 7 7 7 6 6 6 6 6 6 6 4 2 4 6
7 9 9 7 8 9 9 9 9 8 8 8 9 8 8 8 8 7 7 7 6 6 6 6 6 6 6 6 7 7 6 7 7 6 5 6 6 5 5 4 2 4 4
8 9 10 7 8 9 9 8 8 8 8 8 8 8 7 7 7 7 6 6 6 6 5 5 5 5 6 6 6 6 6 6 6 5 3 3 5 5 3 3 3 3 3
8 9 9 8 8 8 8 9 8 8 8 7 7 7 7 7 7 6 6 5 5 5 5 5 5 5 6 5 5 5 6 5 5 2 2 2 2 4 2 3 3 2 2
9 8 9 8 8 8 8 8 8 8 7 7 6 6 6 6 6 6 6 5 5 5 4 4 4 5 5 4 4 5 5 5 3 3 1 1 1 3 1 2 2 2 2
9 9 10 7 8 8 8 8 8 7 7 6 6 5 5 6 6 5 5 4 4 4 4 4 4 4 4 3 3 3 4 4 4 2 1 0 0 2 1 1 2 2 2
8 8 9 7 7 7 7 7 7 7 6 6 5 5 5 5 5 5 4 4 4 4 3 3 3 3 3 3 2 2 3 2 3 1 1 1 0 1 2 2 2 2 2
8 7 8 8 6 6 6 6 6 6 6 6 5 4 4 4 4 4 4 4 3 3 3 3 3 2 2 2 2 2 2 3 3 2 2 2 0 2 3 3 3 3 3
7 6 7 8 7 6 5 5 5 5 5 4 4 3 3 3 3 3 3 3 3 3 2 2 2 2 1 2 2 1 2 3 5 2 3 2 1 4 4 4 5 4 5
5 5 6 6 6 6 6 6 4 4 4 4 3 3 3 3 3 3 3 3 3 2 2 1 1 1 1 1 2 2 2 4 4 3 3 1 2 5 6 6 6 6 6
5 5 5 5 5 5 5 5 5 5 4 3 3 3 3 3 3 3 2 3 2 2 2 1 2 2 2 3 2 2 4 3 3 2 3 1 4 7 7 7 7 7 7
7 6 5 5 5 5 4 4 4 4 4 4 3 4 3 2 2 1 3 2 2 2 3 2 2 3 4 3 3 4 3 4 3 3 2 1 5 7 8 8 8 8 9
6 6 6 5 5 5 4 3 3 2 3 3 3 3 2 2 2 2 1 2 3 3 3 2 3 3 3 3 3 3 4 3 3 3 2 3 7 8 9 9 9 9 10
6 6 6 6 6 5 4 3 3 3 3 2 3 3 2 2 2 1 1 1 2 1 2 2 2 3 3 4 4 4 4 4 3 3 2 3 7 9 9 9 10 10 10
7 7 7 7 7 6 5 3 3 3 3 3 2 2 2 2 2 1 1 1 1 2 2 2 2 3 3 4 4 5 5 5 5 5 3 4 7 9 10 10 10 10 11
8 8 7 8 7 7 5 5 4 3 3 2 2 2 3 2 2 1 1 1 1 1 2 2 3 3 3 3 4 5 5 6 6 6 5 4 6 8 9 10 10 10 11
8 7 7 7 7 7 7 6 4 4 4 3 3 3 3 2 2 1 1 1 1 1 2 2 3 3 3 3 4 5 5 5 5 6 6 4 5 6 8 10 10 11 11
7 7 7 6 7 8 6 6 4 4 4 3 3 2 3 2 2 2 1 1 1 1 2 2 2 3 3 3 4 4 4 5 6 6 5 5 5 5 6 8 10 11 12
8 8 8 8 8 8 7 5 4 4 3 3 3 2 2 2 2 2 1 1 1 1 1 2 2 3 3 4 4 5 5 5 5 6 6 5 5 6 5 6 8 9 11
7 7 8 8 8 7 6 5 4 4 3 2 2 2 3 2 2 2 1 1 2 1 1 2 3 3 3 4 5 5 5 5 5 5 6 5 5 6 6 6 6 6 9
7 7 8 8 8 7 6 6 5 4 4 3 2 2 3 3 3 2 2 2 2 2 2 3 2 3 3 3 4 5 5 5 5 4 5 5 5 5 6 6 6 5 5
7 8 8 8 8 8 6 5 4 4 3 2 2 2 3 3 3 2 2 2 2 2 2 2 2 3 2 3 4 5 5 4 4 4 5 5 5 5 6 7 7 7 6
7 7 7 8 8 8 8 5 5 4 3 3 3 2 2 2 3 3 3 2 2 2 2 3 3 4 3 3 3 4 4 5 4 4 5 5 6 6 6 6 7 7 7
6 6 6 7 8 8 8 7 8 6 5 4 3 2 2 2 2 2 2 2 2 2 2 3 3 4 4 3 3 4 5 6 6 5 4 5 6 7 7 6 7 7 8
5 5 5 6 7 8 8 8 8 6 5 4 4 3 3 2 2 2 2 2 2 2 2 3 3 4 4 4 4 4 5 5 7 7 8 6 6 6 6 7 7 7 7
5 5 5 6 6 7 8 8 8 8 7 6 5 4 3 2 1 2 2 2 2 2 3 3 3 4 4 5 4 4 4 5 5 6 9 9 8 6 7 7 7 6 6
Wind_Direction
149 150 141 148 140 133 127 123 118 117 118 122 123 123 121 118 116 114 114 111 106 102 102 102 99 95 95 94 93 95 99 100 100 101 104 106 108 107 103 111 131 113 98
142 149 140 145 140 136 130 126 123 120 119 121 123 123 123 121 119 117 115 114 113 110 106 105 102 96 94 95 96 98 99 98 95 95 104 123 117 109 104 105 67 78 106
141 146 146 140 139 137 134 129 127 124 120 121 120 122 123 123 121 120 119 118 117 115 110 108 103 99 99 97 99 100 101 103 99 102 166 153 128 119 113 118 119 114 122
139 145 141 134 139 137 137 133 130 127 123 123 123 123 124 125 122 119 118 119 118 114 108 103 101 101 103 102 101 105 106 105 104 149 180 99 118 114 135 138 141 146 143
140 143 130 132 140 138 137 136 133 130 127 125 125 125 128 127 124 121 117 116 114 107 103 99 98 102 105 109 110 112 116 112 125 201 105 88 90 100 139 165 175 166 178
143 144 131 137 141 140 137 137 135 134 134 132 130 128 130 132 128 121 117 116 113 106 103 103 104 104 107 116 126 125 120 129 196 178 145 162 126 117 236 223 213 207 214
142 143 138 135 140 140 140 138 140 141 139 138 135 134 136 136 133 127 123 121 121 117 113 109 113 112 111 120 131 133 134 154 240 215 218 223 118 200 242 230 227 232 234
142 146 142 138 137 139 139 138 139 143 143 141 140 143 146 143 139 139 137 133 126 125 125 123 124 123 123 131 135 144 152 213 243 239 233 231 118 228 242 243 238 239 246
145 150 151 157 156 149 140 134 130 132 137 136 142 147 141 138 142 149 143 140 130 123 128 133 139 148 158 159 157 153 160 231 252 242 239 236 174 241 247 248 247 248 249
151 159 161 164 167 169 162 142 131 123 124 127 135 144 138 142 149 143 154 144 145 144 142 164 187 187 186 195 191 179 191 227 243 241 243 222 210 243 247 249 248 249 250
165 174 175 173 172 173 170 154 157 148 138 151 156 142 175 193 185 173 155 122 158 177 192 220 239 215 221 204 198 203 215 237 250 257 253 281 251 251 252 253 253 251 251
178 181 183 184 179 177 172 172 181 181 174 191 190 174 193 194 185 197 128 143 186 212 220 229 242 230 235 230 201 209 231 246 252 255 255 266 264 262 258 257 257 257 255
186 183 190 188 186 184 181 182 180 183 184 193 195 186 191 192 186 202 193 181 204 218 227 213 232 241 249 247 246 236 248 252 251 256 248 246 266 268 267 263 260 260 259
195 194 192 191 188 189 188 183 185 185 185 186 188 194 194 201 217 209 223 227 233 232 248 253 257 255 261 259 254 252 249 251 254 257 254 238 264 269 268 272 268 265 264
205 199 194 192 190 187 186 185 186 191 189 181 183 192 198 209 216 212 226 228 248 253 248 259 264 266 268 269 264 260 256 256 258 259 255 230 256 268 267 269 273 271 267
212 204 195 192 190 187 187 185 184 185 183 188 183 191 202 210 215 218 224 235 251 255 264 267 273 272 270 272 271 266 262 261 260 261 266 249 240 258 266 268 271 275 272
215 206 195 191 189 187 189 186 183 185 183 186 187 194 201 209 209 208 230 234 248 261 263 264 269 273 274 270 269 269 267 266 267 265 265 268 256 245 256 266 269 271 275
214 204 193 186 190 187 187 186 184 185 183 185 189 192 199 203 203 206 224 247 261 255 257 263 268 272 274 277 275 273 268 264 265 268 267 264 267 266 254 257 268 271 272
212 200 192 189 190 186 185 181 178 177 181 180 180 182 185 193 200 200 215 240 246 250 261 271 273 274 280 284 284 279 274 267 263 259 259 263 267 269 269 258 259 265 272
208 199 192 189 189 180 176 170 168 171 175 175 174 173 179 183 189 197 205 224 237 236 250 260 266 274 280 285 284 280 275 269 261 258 261 263 264 266 267 269 263 256 259
200 194 192 189 183 177 175 175 176 177 175 170 168 173 180 180 182 191 207 217 232 237 251 265 270 272 282 292 280 280 271 259 257 257 263 264 265 266 268 270 269 272 265
198 194 194 191 187 185 183 179 179 172 172 168 165 178 187 185 185 193 210 217 223 236 246 256 261 267 275 283 282 285 279 257 243 258 265 266 269 267 268 271 271 270 275
197 196 195 193 189 186 180 171 163 160 165 173 178 181 191 189 194 197 209 220 227 237 243 252 257 259 266 270 277 275 281 280 295 254 258 265 270 273 276 277 275 275 277
198 191 192 191 189 184 181 181 179 181 183 190 183 181 189 198 202 205 217 225 231 241 248 254 259 263 262 261 259 263 271 285 283 284 265 264 272 272 274 275 274 275 276
190 187 186 185 186 184 185 184 184 184 180 174 174 177 187 200 211 215 223 232 237 245 251 258 261 261 260 260 260 261 263 268 267 273 281 286 279 273 276 274 273 274 276
183 180 182 180 182 182 182 183 185 182 180 177 182 183 189 196 215 229 241 241 243 249 252 257 258 257 260 262 262 259 261 262 266 267 274 281 283 283 280 274 271 272 277